Location: B?dimalle
(17.1788°N, 80.5377°E)
Time: 11:02:09
(UTC+00:00)

Tiros 1 despin weight - Pass Details

Date: 18 February 2026
Orbit: 556 x 593 km, 48.2° (Epoch: 10 March)

Event Time Altitude Azimuth Distance (km) Brightness Sun altitude
Rises 17:25:36 0° 311° (NW) 2,739 - -68.4°
Reaches altitude 10° 17:27:52 10° 307° (NW) 1,848 - -68.9°
Maximum altitude 17:32:00 54° 230° (SW) 690 - -69.9°
Drops below altitude 10° 17:36:10 10° 152° (SSE) 1,868 - -70.8°
Sets 17:38:29 0° 148° (SSE) 2,772 - -71.4°
